Flag for Kazakhstan Weather past 2 weeks in Qyzylorda, Kazakhstan

Now
70 °F

Sunny.


Feels Like: 70 °F
Forecast: 49 / 62 °F
Wind: 10 mph from North

Location: Kzyl-Orda


UV Index: 5 (Moderate)

Visibility: 10 mi


Pressure: 29.92 "Hg

Humidity: 23%

Dew point: 30 °F

Location of QyzylordaLocation

Historic Weather in Qyzylorda

°F

Qyzylorda temperature yesterday

Maximum temperature yesterday: 77 °F (at 3:00 PM)
Minimum temperature yesterday: 43 °F (at 6:00 AM)
Average temperature yesterday: 65 °F

Past Weeks' High & Low Weather Summary

 TemperatureHumidityPressure
High77 °F (Apr 9, 5:00 PM)100% (Apr 7, 12:00 AM)30.57 "Hg (Apr 7, 12:00 AM)
Low25 °F (Apr 14, 5:00 AM)11% (Apr 20, 3:00 PM)29.56 "Hg (Apr 10, 4:00 AM)
Average53 °F46%30.15 "Hg
* Reported Apr 6 7:00 PM — Apr 21 7:30 PM, Qyzylorda, Weather by CustomWeather, © 2014

Note: Actual official high and low records may vary slightly from our data, if they occured in-between our weather recording intervals... More about our weather records

Advertising

Historic Weather Conditions — Data for Previous 24 hours

 ConditionsComfort  
Time TempWeatherWind HumidityBarometerVisibility
7:30 PM
Apr 21
72 °FSunny.13 mph20%29.92 "Hg10 mi
7:00 PM73 °FSunny.15 mph19%29.92 "Hg10 mi
6:30 PM73 °FSunny.15 mph20%29.92 "Hg10 mi
6:00 PM73 °FSunny.15 mph22%29.92 "Hg10 mi
5:30 PM73 °FScattered clouds.15 mph23%29.92 "HgN/A
5:00 PM75 °FScattered clouds.13 mph21%29.92 "HgN/A
4:30 PM75 °FScattered clouds.13 mph21%29.92 "HgN/A
4:00 PM73 °FPartly sunny.15 mph22%29.92 "HgN/A
3:30 PM75 °FPartly sunny.15 mph21%29.95 "HgN/A
3:00 PM75 °FPartly sunny.15 mph19%29.95 "HgN/A
2:30 PM75 °FPartly sunny.13 mph19%29.95 "HgN/A
2:00 PM75 °FPartly sunny.13 mph18%29.95 "HgN/A
1:30 PM73 °FPartly sunny.15 mph20%29.95 "HgN/A
1:00 PM73 °FPassing clouds.10 mph20%29.98 "HgN/A
12:30 PM73 °FPassing clouds.8 mph20%29.98 "HgN/A
12:00 PM73 °FPassing clouds.6 mph20%29.98 "HgN/A
11:30 AM72 °FSunny.3 mph23%29.98 "Hg10 mi
11:00 AM70 °FSunny.1 mph27%29.98 "Hg10 mi
10:30 AM68 °FSunny.1 mph30%30.01 "Hg10 mi
10:00 AM64 °FSunny.3 mph32%30.01 "Hg10 mi
9:30 AM61 °FSunny.No wind42%29.98 "Hg10 mi
9:00 AM59 °FSunny.No wind45%29.98 "Hg10 mi
8:30 AM55 °FSunny.1 mph51%29.98 "Hg10 mi
8:00 AM52 °FSunny.1 mph54%29.98 "Hg10 mi
7:30 AM48 °FSunny.3 mph62%29.98 "Hg10 mi
7:00 AM46 °FSunny.3 mph66%29.98 "Hg10 mi
6:00 AM48 °FClear.3 mph66%29.98 "Hg10 mi
5:00 AM48 °FClear.3 mph62%30.01 "Hg10 mi
4:00 AM54 °FClear.8 mph51%30.01 "Hg10 mi
3:00 AM55 °FClear.8 mph44%30.01 "Hg10 mi
2:00 AM55 °FClear.6 mph41%30.01 "Hg10 mi
1:00 AM55 °FClear.3 mph44%30.01 "Hg10 mi
12:00 AM55 °FClear.3 mph44%30.04 "Hg10 mi
11:00 PM
Apr 20
59 °FClear.3 mph36%30.04 "Hg10 mi
10:00 PM61 °FClear.3 mph29%30.04 "Hg10 mi
9:00 PM66 °FClear.3 mph24%30.04 "Hg10 mi
8:00 PM72 °FSunny.6 mph17%30.01 "Hg10 mi
Weather by CustomWeather, © 2014

See weather overview